TimeIST,TemperatureF,Dew PointF,Humidity,Sea Level PressureIn,VisibilityMPH,Wind Direction,Wind SpeedMPH,Gust SpeedMPH,PrecipitationIn,Events,Conditions,WindDirDegrees,DateUTC
1:00 AM,58,58,100,29.77,,South,2.2,,,,,190,2013-07-25 00:00:00
7:00 AM,56,55,97,29.79,3,West,6.7,,,Fog,Light Fog,280,2013-07-25 06:00:00
7:00 AM,55.4,55.4,100,29.77,3.1,West,5.8,-,N/A,Fog,Fog,280,2013-07-25 06:00:00
7:30 AM,57.2,55.4,94,29.77,3.1,NW,3.5,-,N/A,,Scattered Clouds,310,2013-07-25 06:30:00
8:00 AM,57.2,55.4,94,29.77,2.5,WNW,3.5,-,N/A,Fog,Fog,290,2013-07-25 07:00:00
8:30 AM,57.2,55.4,94,29.77,2.5,WNW,4.6,-,N/A,,Scattered Clouds,300,2013-07-25 07:30:00
9:00 AM,59.0,55.4,88,29.80,2.5,WNW,3.5,-,N/A,Fog,Fog,290,2013-07-25 08:00:00
9:30 AM,60.8,55.4,82,29.80,6.2,WNW,4.6,-,N/A,,Scattered Clouds,290,2013-07-25 08:30:00
10:00 AM,60.8,55.4,82,29.80,6.2,West,5.8,-,N/A,,Scattered Clouds,270,2013-07-25 09:00:00
10:30 AM,62.6,55.4,77,29.80,6.2,West,3.5,-,N/A,,Partly Cloudy,280,2013-07-25 09:30:00
11:00 AM,62.6,55.4,77,29.80,6.2,NW,4.6,-,N/A,,Partly Cloudy,320,2013-07-25 10:00:00
11:30 AM,64.4,55.4,73,29.80,6.2,West,4.6,-,N/A,,Partly Cloudy,270,2013-07-25 10:30:00
12:00 PM,66.2,55.4,68,29.80,6.2,West,2.3,-,N/A,,Partly Cloudy,270,2013-07-25 11:00:00
12:30 PM,66.2,55.4,68,29.80,6.2,Variable,3.5,-,N/A,,Partly Cloudy,0,2013-07-25 11:30:00
1:00 PM,66,53,54,29.79,28,WSW,4.5,,,,Mostly Cloudy,250,2013-07-25 12:00:00
1:00 PM,66.2,53.6,64,29.80,6.2,WSW,3.5,-,N/A,,Scattered Clouds,250,2013-07-25 12:00:00
1:30 PM,68.0,53.6,60,29.80,6.2,Variable,2.3,-,N/A,,Scattered Clouds,0,2013-07-25 12:30:00
2:00 PM,68.0,53.6,60,29.77,6.2,WNW,5.8,-,N/A,,Scattered Clouds,300,2013-07-25 13:00:00
2:30 PM,68.0,53.6,60,29.77,6.2,SSW,3.5,-,N/A,,Scattered Clouds,200,2013-07-25 13:30:00
3:00 PM,68.0,57.2,68,29.77,6.2,South,11.5,-,N/A,,Scattered Clouds,190,2013-07-25 14:00:00
3:30 PM,66.2,55.4,68,29.77,6.2,SSW,8.1,-,N/A,,Mostly Cloudy,210,2013-07-25 14:30:00
4:00 PM,66.2,57.2,73,29.80,6.2,WSW,11.5,-,N/A,,Mostly Cloudy,240,2013-07-25 15:00:00
4:30 PM,64.4,55.4,73,29.80,6.2,SW,8.1,-,N/A,,Mostly Cloudy,220,2013-07-25 15:30:00
5:00 PM,64.4,57.2,77,29.80,6.2,SW,6.9,-,N/A,Rain,Light Rain Showers,230,2013-07-25 16:00:00
5:30 PM,62.6,57.2,82,29.80,6.2,WNW,6.9,-,N/A,,Mostly Cloudy,300,2013-07-25 16:30:00
6:00 PM,64.4,57.2,77,29.80,6.2,WNW,8.1,-,N/A,,Mostly Cloudy,300,2013-07-25 17:00:00
7:00 PM,64.4,57.2,77,29.80,6.2,North,8.1,-,N/A,,Mostly Cloudy,360,2013-07-25 18:00:00